Time,TemperatureF,DewpointF,PressureIn,WindDirection,WindDirectionDegrees,WindSpeedMPH,WindSpeedGustMPH,Humidity,HourlyPrecipIn,Conditions,Clouds,dailyrainin,SoftwareType,DateUTC
2013-08-09 00:02:00,68.0,68.0,29.79,South,183,5.0,12.0,100,0.00,,,0.99,Wunderground v.1.15,2013-08-09 04:02:00,
2013-08-09 00:04:00,67.9,67.9,29.79,South,191,5.0,12.0,100,0.00,,,0.99,Wunderground v.1.15,2013-08-09 04:04:00,
2013-08-09 00:07:00,67.9,67.9,29.79,SSW,198,5.0,12.0,100,0.00,,,0.99,Wunderground v.1.15,2013-08-09 04:07:00,
2013-08-09 00:10:00,67.8,67.8,29.79,South,183,5.0,12.0,100,0.00,,,0.99,Wunderground v.1.15,2013-08-09 04:10:00,
2013-08-09 00:11:00,67.8,68.0,29.79,South,184,7.0,10.0,100,0.01,,,0.99,weatherlink.com 1.10,2013-08-09 04:11:00,
2013-08-09 00:20:00,67.8,67.8,29.79,SSW,200,7.0,7.0,100,0.00,,,0.99,Wunderground v.1.15,2013-08-09 04:20:00,
2013-08-09 00:25:00,67.9,67.9,29.78,SSW,202,8.0,12.0,100,0.00,,,1.00,Wunderground v.1.15,2013-08-09 04:25:00,
2013-08-09 00:32:00,67.9,67.9,29.78,South,185,8.0,12.0,100,0.00,,,1.00,Wunderground v.1.15,2013-08-09 04:32:00,
2013-08-09 00:38:00,67.9,67.9,29.78,South,187,8.0,12.0,100,0.00,,,1.00,Wunderground v.1.15,2013-08-09 04:38:00,
2013-08-09 00:44:00,67.9,67.9,29.78,South,185,7.0,12.0,100,0.00,,,1.00,Wunderground v.1.15,2013-08-09 04:44:00,
2013-08-09 00:50:00,68.0,68.0,29.77,South,186,7.0,12.0,100,0.00,,,1.00,Wunderground v.1.15,2013-08-09 04:50:00,
2013-08-09 00:55:00,68.0,68.0,29.77,SSW,192,8.0,12.0,100,0.01,,,1.00,weatherlink.com 1.10,2013-08-09 04:55:00,
2013-08-09 01:02:00,68.0,68.0,29.77,South,190,8.0,9.0,100,0.17,,,1.02,Wunderground v.1.15,2013-08-09 05:02:00,
2013-08-09 01:08:00,68.1,68.1,29.77,South,183,7.0,14.0,100,0.06,,,1.02,Wunderground v.1.15,2013-08-09 05:08:00,
2013-08-09 01:14:00,68.1,68.1,29.76,SSE,163,5.0,14.0,100,0.36,,,1.05,Wunderground v.1.15,2013-08-09 05:14:00,
2013-08-09 01:20:00,68.2,68.2,29.76,SSE,163,1.0,1.0,100,0.09,,,1.05,Wunderground v.1.15,2013-08-09 05:20:00,
2013-08-09 01:26:00,68.3,68.0,29.76,SSE,163,0.0,2.0,100,0.05,,,1.05,weatherlink.com 1.10,2013-08-09 05:26:00,
2013-08-09 01:32:00,68.2,68.2,29.75,SSE,163,0.0,14.0,100,0.00,,,1.05,Wunderground v.1.15,2013-08-09 05:32:00,
2013-08-09 01:37:00,68.1,68.1,29.75,SSE,163,0.0,14.0,100,0.00,,,1.05,Wunderground v.1.15,2013-08-09 05:37:00,
2013-08-09 01:44:00,68.0,68.0,29.75,SSE,163,0.0,14.0,100,0.00,,,1.05,Wunderground v.1.15,2013-08-09 05:44:00,
2013-08-09 01:49:00,68.0,68.0,29.75,SSE,163,0.0,14.0,100,0.00,,,1.05,Wunderground v.1.15,2013-08-09 05:49:00,
2013-08-09 01:56:00,68.1,68.1,29.75,SSE,163,0.0,14.0,100,0.00,,,1.05,Wunderground v.1.15,2013-08-09 05:56:00,
2013-08-09 02:06:00,68.3,68.3,29.75,SSE,165,0.0,4.0,100,0.00,,,1.05,Wunderground v.1.15,2013-08-09 06:06:00,
2013-08-09 02:11:00,68.4,68.0,29.75,South,183,4.0,7.0,100,0.01,,,1.05,weatherlink.com 1.10,2013-08-09 06:11:00,
2013-08-09 02:18:00,68.5,68.5,29.75,SSE,163,3.0,5.0,100,0.00,,,1.05,Wunderground v.1.15,2013-08-09 06:18:00,
2013-08-09 02:24:00,68.5,68.5,29.74,SSE,167,2.0,4.0,100,0.00,,,1.05,Wunderground v.1.15,2013-08-09 06:24:00,
2013-08-09 02:29:00,68.5,68.5,29.74,SE,146,2.0,4.0,100,0.00,,,1.05,Wunderground v.1.15,2013-08-09 06:29:00,
2013-08-09 02:36:00,68.5,68.5,29.74,SSE,148,3.0,4.0,100,0.00,,,1.05,Wunderground v.1.15,2013-08-09 06:36:00,
2013-08-09 02:41:00,68.5,69.0,29.74,SE,138,2.0,6.0,100,0.01,,,1.06,weatherlink.com 1.10,2013-08-09 06:41:00,
2013-08-09 02:46:00,68.5,68.5,29.74,SSE,168,3.0,4.0,100,0.00,,,0.00,Wunderground v.1.15,2013-08-09 06:46:00,
2013-08-09 02:51:00,68.5,68.5,29.74,South,169,2.0,4.0,100,0.00,,,0.00,Wunderground v.1.15,2013-08-09 06:51:00,
2013-08-09 02:58:00,68.5,68.5,29.74,SSE,162,1.0,4.0,100,0.00,,,0.00,Wunderground v.1.15,2013-08-09 06:58:00,
2013-08-09 03:04:00,68.5,68.5,29.74,SSE,160,2.0,6.0,100,0.00,,,0.00,Wunderground v.1.15,2013-08-09 07:04:00,
2013-08-09 03:10:00,68.5,68.5,29.74,SSE,159,2.0,6.0,100,0.00,,,0.00,Wunderground v.1.15,2013-08-09 07:10:00,
2013-08-09 03:16:00,68.3,68.3,29.74,SSE,155,2.0,6.0,100,0.00,,,0.00,Wunderground v.1.15,2013-08-09 07:16:00,
2013-08-09 03:22:00,68.3,68.3,29.74,SSE,163,2.0,6.0,100,0.00,,,0.00,Wunderground v.1.15,2013-08-09 07:22:00,
2013-08-09 03:28:00,68.2,68.2,29.74,SSE,164,2.0,6.0,100,0.00,,,0.00,Wunderground v.1.15,2013-08-09 07:28:00,
2013-08-09 03:34:00,68.1,68.1,29.73,SSE,163,1.0,6.0,100,0.00,,,0.00,Wunderground v.1.15,2013-08-09 07:34:00,
2013-08-09 03:40:00,68.0,68.0,29.73,SSE,160,2.0,6.0,100,0.00,,,0.00,Wunderground v.1.15,2013-08-09 07:40:00,
2013-08-09 03:46:00,67.9,67.9,29.73,SSE,163,2.0,6.0,100,0.00,,,0.00,Wunderground v.1.15,2013-08-09 07:46:00,
2013-08-09 03:52:00,67.9,67.9,29.73,SSE,167,1.0,6.0,100,0.00,,,0.00,Wunderground v.1.15,2013-08-09 07:52:00,
2013-08-09 03:57:00,67.8,68.0,29.73,SSE,167,0.0,4.0,100,0.00,,,0.00,weatherlink.com 1.10,2013-08-09 07:57:00,
2013-08-09 04:03:00,67.8,67.8,29.72,SSE,167,0.0,4.0,100,0.00,,,0.00,Wunderground v.1.15,2013-08-09 08:03:00,
2013-08-09 04:10:00,67.8,67.8,29.72,South,169,0.0,4.0,100,0.00,,,0.00,Wunderground v.1.15,2013-08-09 08:10:00,
2013-08-09 04:16:00,67.7,67.7,29.72,SSE,161,0.0,4.0,100,0.00,,,0.00,Wunderground v.1.15,2013-08-09 08:16:00,
2013-08-09 04:21:00,67.8,67.8,29.72,South,169,0.0,4.0,100,0.00,,,0.00,Wunderground v.1.15,2013-08-09 08:21:00,
2013-08-09 04:27:00,67.8,68.0,29.72,SSE,161,1.0,4.0,100,0.00,,,0.00,weatherlink.com 1.10,2013-08-09 08:27:00,
2013-08-09 04:32:00,67.8,67.8,29.72,SSE,159,2.0,4.0,100,0.00,,,0.00,Wunderground v.1.15,2013-08-09 08:32:00,
2013-08-09 04:37:00,67.8,67.8,29.72,SSE,160,2.0,4.0,100,0.00,,,0.00,Wunderground v.1.15,2013-08-09 08:37:00,
2013-08-09 04:43:00,67.8,68.0,29.72,SSE,160,1.0,5.0,100,0.00,,,0.00,weatherlink.com 1.10,2013-08-09 08:43:00,
2013-08-09 04:48:00,67.8,67.8,29.72,SE,142,2.0,4.0,100,0.00,,,0.00,Wunderground v.1.15,2013-08-09 08:48:00,
2013-08-09 04:54:00,67.9,67.9,29.72,SSE,154,3.0,4.0,100,0.00,,,0.00,Wunderground v.1.15,2013-08-09 08:54:00,
2013-08-09 05:00:00,67.9,67.9,29.72,SSE,149,3.0,3.0,100,0.00,,,0.00,Wunderground v.1.15,2013-08-09 09:00:00,
2013-08-09 05:06:00,67.9,67.9,29.72,SSE,155,2.0,5.0,100,0.00,,,0.00,Wunderground v.1.15,2013-08-09 09:06:00,
2013-08-09 05:12:00,68.0,68.0,29.72,SSE,165,1.0,6.0,100,0.00,,,0.00,weatherlink.com 1.10,2013-08-09 09:12:00,
2013-08-09 05:18:00,68.0,68.0,29.72,SSE,154,2.0,5.0,100,0.00,,,0.00,Wunderground v.1.15,2013-08-09 09:18:00,
2013-08-09 05:23:00,67.9,67.9,29.72,SSE,154,2.0,5.0,100,0.00,,,0.00,Wunderground v.1.15,2013-08-09 09:23:00,
2013-08-09 05:30:00,67.9,67.9,29.72,SSE,155,2.0,2.0,100,0.00,,,0.00,Wunderground v.1.15,2013-08-09 09:30:00,
2013-08-09 05:38:00,67.9,67.9,29.72,SE,143,2.0,5.0,100,0.00,,,0.00,Wunderground v.1.15,2013-08-09 09:38:00,
2013-08-09 05:44:00,67.9,67.9,29.72,SSE,164,2.0,5.0,100,0.00,,,0.00,Wunderground v.1.15,2013-08-09 09:44:00,
2013-08-09 05:50:00,67.9,67.9,29.72,SSE,160,2.0,2.0,100,0.00,,,0.00,Wunderground v.1.15,2013-08-09 09:50:00,
2013-08-09 05:56:00,67.9,67.9,29.72,SSE,160,1.0,5.0,100,0.00,,,0.00,Wunderground v.1.15,2013-08-09 09:56:00,
2013-08-09 06:01:00,68.0,68.0,29.71,SSE,164,1.0,4.0,100,0.00,,,0.00,Wunderground v.1.15,2013-08-09 10:01:00,
2013-08-09 06:08:00,68.1,68.1,29.71,SSE,150,1.0,4.0,100,0.00,,,0.00,Wunderground v.1.15,2013-08-09 10:08:00,
2013-08-09 06:13:00,68.1,68.0,29.71,SE,145,3.0,4.0,100,0.00,,,0.00,weatherlink.com 1.10,2013-08-09 10:13:00,
2013-08-09 06:18:00,68.1,68.1,29.71,SE,144,2.0,4.0,100,0.00,,,0.00,Wunderground v.1.15,2013-08-09 10:18:00,
2013-08-09 06:24:00,68.1,68.1,29.71,SE,144,2.0,4.0,100,0.00,,,0.00,Wunderground v.1.15,2013-08-09 10:24:00,
2013-08-09 06:30:00,68.1,68.1,29.71,SE,142,1.0,4.0,100,0.00,,,0.00,Wunderground v.1.15,2013-08-09 10:30:00,
2013-08-09 06:36:00,68.1,68.1,29.71,SE,142,1.0,4.0,100,0.00,,,0.00,Wunderground v.1.15,2013-08-09 10:36:00,
2013-08-09 06:41:00,68.1,68.1,29.71,SE,142,0.0,4.0,100,0.00,,,0.00,Wunderground v.1.15,2013-08-09 10:41:00,
2013-08-09 06:48:00,68.1,68.1,29.71,SE,142,0.0,4.0,100,0.00,,,0.00,Wunderground v.1.15,2013-08-09 10:48:00,
2013-08-09 06:54:00,68.2,68.2,29.70,SE,140,0.0,4.0,100,0.00,,,0.00,Wunderground v.1.15,2013-08-09 10:54:00,
2013-08-09 07:00:00,68.4,68.4,29.70,SE,140,0.0,5.0,100,0.00,,,0.00,Wunderground v.1.15,2013-08-09 11:00:00,
2013-08-09 07:05:00,68.5,68.5,29.70,SE,140,0.0,5.0,100,0.00,,,0.00,Wunderground v.1.15,2013-08-09 11:05:00,
2013-08-09 07:12:00,68.6,69.0,29.70,SE,140,0.0,1.0,100,0.00,,,0.00,weatherlink.com 1.10,2013-08-09 11:12:00,
2013-08-09 07:18:00,68.7,68.7,29.70,SE,140,0.0,5.0,100,0.00,,,0.00,Wunderground v.1.15,2013-08-09 11:18:00,
2013-08-09 07:24:00,68.8,68.8,29.70,SE,140,0.0,5.0,100,0.00,,,0.00,Wunderground v.1.15,2013-08-09 11:24:00,
2013-08-09 07:30:00,68.8,68.8,29.70,SE,140,0.0,5.0,100,0.00,,,0.00,Wunderground v.1.15,2013-08-09 11:30:00,
2013-08-09 07:36:00,68.9,68.9,29.70,SE,140,0.0,5.0,100,0.00,,,0.00,Wunderground v.1.15,2013-08-09 11:36:00,
2013-08-09 07:42:00,69.1,69.1,29.70,SE,140,0.0,5.0,100,0.00,,,0.00,Wunderground v.1.15,2013-08-09 11:42:00,
2013-08-09 07:48:00,69.4,69.4,29.70,SE,140,0.0,5.0,100,0.00,,,0.00,Wunderground v.1.15,2013-08-09 11:48:00,
2013-08-09 07:55:00,69.6,69.6,29.70,SE,142,0.0,5.0,100,0.00,,,0.00,Wunderground v.1.15,2013-08-09 11:55:00,
2013-08-09 08:02:00,69.7,69.7,29.70,SE,142,0.0,0.0,100,0.00,,,0.00,Wunderground v.1.15,2013-08-09 12:02:00,
2013-08-09 08:08:00,69.8,69.8,29.70,SE,142,0.0,0.0,100,0.00,,,0.00,Wunderground v.1.15,2013-08-09 12:08:00,
2013-08-09 08:13:00,69.8,70.0,29.70,SE,142,1.0,2.0,100,0.00,,,0.00,weatherlink.com 1.10,2013-08-09 12:13:00,
2013-08-09 08:20:00,69.9,69.9,29.70,SSE,155,0.0,0.0,100,0.00,,,0.00,Wunderground v.1.15,2013-08-09 12:20:00,
2013-08-09 08:26:00,70.1,70.1,29.70,South,178,0.0,0.0,100,0.00,,,0.00,Wunderground v.1.15,2013-08-09 12:26:00,
2013-08-09 08:31:00,70.3,70.3,29.70,South,178,0.0,0.0,100,0.00,,,0.00,Wunderground v.1.15,2013-08-09 12:31:00,
2013-08-09 08:38:00,70.4,70.4,29.70,South,178,0.0,0.0,100,0.00,,,0.00,Wunderground v.1.15,2013-08-09 12:38:00,
2013-08-09 08:44:00,70.6,70.6,29.70,South,171,0.0,0.0,100,0.00,,,0.00,Wunderground v.1.15,2013-08-09 12:44:00,
2013-08-09 08:50:00,70.6,70.6,29.70,South,182,0.0,0.0,100,0.00,,,0.00,Wunderground v.1.15,2013-08-09 12:50:00,
2013-08-09 08:55:00,70.6,70.6,29.70,South,182,0.0,0.0,100,0.00,,,0.00,Wunderground v.1.15,2013-08-09 12:55:00,
2013-08-09 09:02:00,70.7,70.7,29.70,South,182,0.0,2.0,100,0.00,,,0.00,Wunderground v.1.15,2013-08-09 13:02:00,
2013-08-09 09:08:00,71.0,71.0,29.70,South,182,0.0,2.0,100,0.00,,,0.00,Wunderground v.1.15,2013-08-09 13:08:00,
2013-08-09 09:14:00,71.2,71.2,29.70,South,182,0.0,2.0,100,0.00,,,0.00,Wunderground v.1.15,2013-08-09 13:14:00,
2013-08-09 09:20:00,71.1,71.1,29.70,South,182,0.0,2.0,100,0.00,,,0.00,Wunderground v.1.15,2013-08-09 13:20:00,
2013-08-09 09:26:00,70.8,70.8,29.70,South,182,0.0,2.0,100,0.00,,,0.00,Wunderground v.1.15,2013-08-09 13:26:00,
2013-08-09 09:31:00,70.5,70.5,29.70,WSW,254,0.0,2.0,100,0.00,,,0.00,Wunderground v.1.15,2013-08-09 13:31:00,
2013-08-09 09:38:00,70.3,70.3,29.70,West,266,0.0,2.0,100,0.00,,,0.00,Wunderground v.1.15,2013-08-09 13:38:00,
2013-08-09 09:43:00,70.3,70.0,29.70,WNW,290,0.0,0.0,100,0.00,,,0.00,weatherlink.com 1.10,2013-08-09 13:43:00,
2013-08-09 09:49:00,70.3,70.3,29.69,NW,307,2.0,4.0,100,0.00,,,0.00,Wunderground v.1.15,2013-08-09 13:49:00,
2013-08-09 09:56:00,70.3,70.3,29.69,West,274,4.0,5.0,100,0.00,,,0.00,Wunderground v.1.15,2013-08-09 13:56:00,
2013-08-09 10:02:00,70.1,70.1,29.69,NW,306,5.0,7.0,100,0.00,,,0.00,Wunderground v.1.15,2013-08-09 14:02:00,
2013-08-09 10:08:00,70.3,70.3,29.69,NW,304,5.0,7.0,100,0.00,,,0.00,Wunderground v.1.15,2013-08-09 14:08:00,
2013-08-09 10:14:00,70.3,70.3,29.70,NW,319,4.0,5.0,100,0.00,,,0.00,Wunderground v.1.15,2013-08-09 14:14:00,
2013-08-09 10:20:00,70.3,70.3,29.69,WNW,288,4.0,4.0,100,0.00,,,0.00,Wunderground v.1.15,2013-08-09 14:20:00,
2013-08-09 10:26:00,70.5,70.5,29.69,WNW,288,3.0,4.0,100,0.00,,,0.00,Wunderground v.1.15,2013-08-09 14:26:00,
2013-08-09 10:32:00,70.3,70.3,29.69,WNW,290,3.0,4.0,100,0.00,,,0.00,Wunderground v.1.15,2013-08-09 14:32:00,
2013-08-09 10:38:00,70.3,70.3,29.69,WNW,290,3.0,4.0,100,0.00,,,0.00,Wunderground v.1.15,2013-08-09 14:38:00,
2013-08-09 10:44:00,70.8,70.8,29.69,WNW,290,1.0,2.0,100,0.00,,,0.00,Wunderground v.1.15,2013-08-09 14:44:00,
2013-08-09 10:50:00,71.2,71.2,29.69,WNW,290,0.0,0.0,100,0.00,,,0.00,Wunderground v.1.15,2013-08-09 14:50:00,
2013-08-09 11:14:00,70.9,70.9,29.69,WNW,283,1.0,6.0,100,0.00,,,0.00,Wunderground v.1.15,2013-08-09 15:14:00,
2013-08-09 11:20:00,70.7,70.7,29.70,WNW,296,3.0,6.0,100,0.00,,,0.00,Wunderground v.1.15,2013-08-09 15:20:00,
2013-08-09 11:26:00,70.8,70.8,29.70,West,277,4.0,7.0,100,0.00,,,0.01,Wunderground v.1.15,2013-08-09 15:26:00,
2013-08-09 11:34:00,70.6,70.6,29.69,WNW,290,5.0,6.0,100,0.08,,,0.02,Wunderground v.1.15,2013-08-09 15:34:00,
2013-08-09 11:39:00,70.6,70.6,29.69,West,277,4.0,6.0,100,0.08,,,0.02,Wunderground v.1.15,2013-08-09 15:39:00,
2013-08-09 11:46:00,70.6,70.6,29.69,WNW,295,5.0,6.0,100,0.05,,,0.02,Wunderground v.1.15,2013-08-09 15:46:00,
2013-08-09 11:54:00,70.6,70.6,29.70,NW,320,5.0,6.0,100,0.00,,,0.02,Wunderground v.1.15,2013-08-09 15:54:00,
2013-08-09 12:00:00,70.4,70.4,29.70,NW,305,4.0,7.0,100,0.00,,,0.02,Wunderground v.1.15,2013-08-09 16:00:00,
2013-08-09 12:06:00,70.5,70.5,29.69,NW,304,4.0,7.0,100,0.00,,,0.03,Wunderground v.1.15,2013-08-09 16:06:00,
2013-08-09 12:15:00,70.7,71.0,29.70,WNW,300,5.0,7.0,100,0.03,,,0.03,weatherlink.com 1.10,2013-08-09 16:15:00,
2013-08-09 12:22:00,70.7,70.7,29.69,NW,304,3.0,5.0,100,0.00,,,0.03,Wunderground v.1.15,2013-08-09 16:22:00,
2013-08-09 12:28:00,70.6,70.6,29.70,NW,311,4.0,7.0,100,0.00,,,0.04,Wunderground v.1.15,2013-08-09 16:28:00,
2013-08-09 12:34:00,70.7,70.7,29.69,NW,311,4.0,7.0,100,0.00,,,0.04,Wunderground v.1.15,2013-08-09 16:34:00,
2013-08-09 12:40:00,70.9,70.9,29.69,NW,311,1.0,1.0,100,0.00,,,0.04,Wunderground v.1.15,2013-08-09 16:40:00,
2013-08-09 12:46:00,70.9,70.9,29.69,NNW,329,0.0,7.0,100,0.00,,,0.04,Wunderground v.1.15,2013-08-09 16:46:00,
2013-08-09 12:52:00,70.9,70.9,29.69,WNW,300,2.0,7.0,100,0.00,,,0.04,Wunderground v.1.15,2013-08-09 16:52:00,
2013-08-09 12:57:00,71.0,71.0,29.69,NNW,332,6.0,7.0,100,0.02,,,0.04,weatherlink.com 1.10,2013-08-09 16:57:00,
2013-08-09 13:04:00,71.0,71.0,29.69,NW,306,4.0,7.0,100,0.00,,,0.04,Wunderground v.1.15,2013-08-09 17:04:00,
2013-08-09 13:09:00,71.2,71.2,29.69,North,360,5.0,5.0,100,0.00,,,0.04,Wunderground v.1.15,2013-08-09 17:09:00,
2013-08-09 13:18:00,71.5,71.5,29.69,NW,306,4.0,7.0,100,0.00,,,0.04,Wunderground v.1.15,2013-08-09 17:18:00,
2013-08-09 13:24:00,71.5,71.5,29.70,NW,320,3.0,7.0,100,0.00,,,0.04,Wunderground v.1.15,2013-08-09 17:24:00,
2013-08-09 13:29:00,71.3,71.3,29.70,West,281,5.0,7.0,100,0.00,,,0.04,Wunderground v.1.15,2013-08-09 17:29:00,
2013-08-09 13:36:00,71.2,70.9,29.70,NNW,328,7.0,10.0,99,0.00,,,0.04,Wunderground v.1.15,2013-08-09 17:36:00,
2013-08-09 13:41:00,71.1,70.8,29.69,NW,313,6.0,7.0,99,0.00,,,0.04,Wunderground v.1.15,2013-08-09 17:41:00,
2013-08-09 13:50:00,71.5,71.2,29.69,NW,313,5.0,7.0,99,0.00,,,0.04,Wunderground v.1.15,2013-08-09 17:50:00,
2013-08-09 13:56:00,71.6,71.3,29.69,NW,319,5.0,7.0,99,0.00,,,0.04,Wunderground v.1.15,2013-08-09 17:56:00,
2013-08-09 14:02:00,71.8,71.5,29.69,NNW,348,4.0,11.0,99,0.00,,,0.04,Wunderground v.1.15,2013-08-09 18:02:00,
2013-08-09 14:08:00,72.2,71.9,29.69,NW,317,4.0,11.0,99,0.00,,,0.04,Wunderground v.1.15,2013-08-09 18:08:00,
2013-08-09 14:13:00,72.1,72.0,29.70,NNW,340,4.0,10.0,98,0.00,,,0.04,weatherlink.com 1.10,2013-08-09 18:13:00,
2013-08-09 14:20:00,72.5,71.6,29.70,NW,311,6.0,11.0,97,0.00,,,0.04,Wunderground v.1.15,2013-08-09 18:20:00,
2013-08-09 14:26:00,72.7,71.5,29.70,NW,321,5.0,11.0,96,0.00,,,0.04,Wunderground v.1.15,2013-08-09 18:26:00,
2013-08-09 14:32:00,72.5,71.0,29.70,WNW,301,6.0,11.0,95,0.00,,,0.04,Wunderground v.1.15,2013-08-09 18:32:00,
2013-08-09 14:38:00,72.0,70.5,29.70,NNW,327,9.0,11.0,95,0.00,,,0.04,Wunderground v.1.15,2013-08-09 18:38:00,
2013-08-09 14:44:00,71.8,70.6,29.70,WNW,292,9.0,11.0,96,0.00,,,0.04,Wunderground v.1.15,2013-08-09 18:44:00,
2013-08-09 14:50:00,71.8,70.6,29.70,NW,317,8.0,11.0,96,0.00,,,0.04,Wunderground v.1.15,2013-08-09 18:50:00,
2013-08-09 14:56:00,72.0,71.1,29.70,NW,308,8.0,11.0,97,0.00,,,0.04,Wunderground v.1.15,2013-08-09 18:56:00,
2013-08-09 15:02:00,71.8,70.9,29.70,NW,318,7.0,15.0,97,0.00,,,0.04,Wunderground v.1.15,2013-08-09 19:02:00,
2013-08-09 15:08:00,71.4,70.5,29.70,NW,304,8.0,15.0,97,0.00,,,0.04,Wunderground v.1.15,2013-08-09 19:08:00,
2013-08-09 15:13:00,71.0,70.0,29.70,WNW,302,5.0,13.0,97,0.00,,,0.04,weatherlink.com 1.10,2013-08-09 19:13:00,
2013-08-09 15:20:00,70.8,70.2,29.70,WNW,301,7.0,15.0,98,0.00,,,0.04,Wunderground v.1.15,2013-08-09 19:20:00,
2013-08-09 15:26:00,70.8,70.2,29.70,NW,307,7.0,15.0,98,0.00,,,0.04,Wunderground v.1.15,2013-08-09 19:26:00,
2013-08-09 15:31:00,70.6,70.0,29.70,WNW,299,8.0,15.0,98,0.00,,,0.04,Wunderground v.1.15,2013-08-09 19:31:00,
2013-08-09 15:38:00,70.1,69.5,29.70,NNW,338,9.0,15.0,98,0.00,,,0.04,Wunderground v.1.15,2013-08-09 19:38:00,
2013-08-09 15:43:00,70.0,70.0,29.70,NW,309,7.0,13.0,99,0.00,,,0.04,weatherlink.com 1.10,2013-08-09 19:43:00,
2013-08-09 15:52:00,69.6,69.3,29.71,NW,309,8.0,15.0,99,0.00,,,0.04,Wunderground v.1.15,2013-08-09 19:52:00,
2013-08-09 15:58:00,69.8,69.5,29.71,NW,312,7.0,15.0,99,0.00,,,0.04,Wunderground v.1.15,2013-08-09 19:58:00,
2013-08-09 16:06:00,69.7,69.7,29.70,WNW,300,7.0,14.0,100,0.00,,,0.04,Wunderground v.1.15,2013-08-09 20:06:00,
2013-08-09 16:12:00,69.6,69.6,29.70,NNW,329,6.0,7.0,100,0.00,,,0.04,Wunderground v.1.15,2013-08-09 20:12:00,
2013-08-09 16:18:00,69.4,69.4,29.71,NW,312,8.0,12.0,100,0.00,,,0.04,Wunderground v.1.15,2013-08-09 20:18:00,
2013-08-09 16:24:00,69.4,69.4,29.71,WNW,296,10.0,14.0,100,0.00,,,0.04,Wunderground v.1.15,2013-08-09 20:24:00,
2013-08-09 16:29:00,69.3,69.0,29.71,NW,316,4.0,14.0,99,0.00,,,0.04,weatherlink.com 1.10,2013-08-09 20:29:00,
2013-08-09 16:36:00,69.6,69.3,29.72,NW,304,7.0,14.0,99,0.00,,,0.04,Wunderground v.1.15,2013-08-09 20:36:00,
2013-08-09 16:44:00,69.7,69.4,29.71,NW,313,7.0,14.0,99,0.00,,,0.04,Wunderground v.1.15,2013-08-09 20:44:00,
2013-08-09 16:50:00,69.7,69.4,29.72,NNW,346,7.0,7.0,99,0.00,,,0.04,Wunderground v.1.15,2013-08-09 20:50:00,
2013-08-09 16:56:00,69.6,69.0,29.71,NW,322,7.0,14.0,98,0.00,,,0.04,Wunderground v.1.15,2013-08-09 20:56:00,
2013-08-09 17:02:00,69.7,69.1,29.72,NNW,333,8.0,14.0,98,0.00,,,0.04,Wunderground v.1.15,2013-08-09 21:02:00,
2013-08-09 17:07:00,69.8,69.2,29.72,NW,319,8.0,14.0,98,0.00,,,0.04,Wunderground v.1.15,2013-08-09 21:07:00,
2013-08-09 17:14:00,69.8,68.9,29.72,NW,313,8.0,14.0,97,0.00,,,0.04,Wunderground v.1.15,2013-08-09 21:14:00,
2013-08-09 17:20:00,69.8,68.9,29.72,NW,309,8.0,14.0,97,0.00,,,0.04,Wunderground v.1.15,2013-08-09 21:20:00,
2013-08-09 17:26:00,69.7,68.8,29.72,WNW,293,8.0,17.0,97,0.00,,,0.04,Wunderground v.1.15,2013-08-09 21:26:00,
2013-08-09 17:34:00,69.8,68.6,29.72,NW,324,8.0,14.0,96,0.00,,,0.04,Wunderground v.1.15,2013-08-09 21:34:00,
2013-08-09 17:40:00,69.7,68.8,29.72,WNW,296,8.0,14.0,97,0.00,,,0.04,Wunderground v.1.15,2013-08-09 21:40:00,
2013-08-09 17:46:00,69.7,68.8,29.72,NW,320,8.0,14.0,97,0.00,,,0.04,Wunderground v.1.15,2013-08-09 21:46:00,
2013-08-09 17:52:00,69.5,68.3,29.72,NW,309,6.0,7.0,96,0.00,,,0.04,Wunderground v.1.15,2013-08-09 21:52:00,
2013-08-09 17:58:00,69.5,68.6,29.72,North,5,5.0,14.0,97,0.00,,,0.04,Wunderground v.1.15,2013-08-09 21:58:00,
2013-08-09 18:04:00,69.8,68.9,29.72,NNW,342,4.0,17.0,97,0.00,,,0.04,Wunderground v.1.15,2013-08-09 22:04:00,
2013-08-09 18:10:00,70.1,68.9,29.71,NNW,340,3.0,3.0,96,0.00,,,0.04,Wunderground v.1.15,2013-08-09 22:10:00,
2013-08-09 18:16:00,70.6,69.4,29.72,NNW,338,2.0,17.0,96,0.00,,,0.04,Wunderground v.1.15,2013-08-09 22:16:00,
2013-08-09 18:22:00,71.2,69.4,29.71,NNW,335,2.0,17.0,94,0.00,,,0.04,Wunderground v.1.15,2013-08-09 22:22:00,
2013-08-09 18:28:00,71.3,69.2,29.71,North,351,2.0,17.0,93,0.00,,,0.04,Wunderground v.1.15,2013-08-09 22:28:00,
2013-08-09 18:34:00,71.6,69.2,29.71,NW,313,4.0,17.0,92,0.00,,,0.04,Wunderground v.1.15,2013-08-09 22:34:00,
2013-08-09 18:40:00,71.8,68.7,29.71,North,360,4.0,17.0,90,0.00,,,0.04,Wunderground v.1.15,2013-08-09 22:40:00,
2013-08-09 18:46:00,71.9,68.8,29.71,NW,324,3.0,17.0,90,0.00,,,0.04,Wunderground v.1.15,2013-08-09 22:46:00,
2013-08-09 18:52:00,71.6,68.5,29.71,NW,320,4.0,17.0,90,0.00,,,0.04,Wunderground v.1.15,2013-08-09 22:52:00,
2013-08-09 18:58:00,71.2,68.4,29.71,NNW,334,3.0,17.0,91,0.00,,,0.04,Wunderground v.1.15,2013-08-09 22:58:00,
2013-08-09 19:04:00,71.0,68.6,29.71,NNW,334,1.0,8.0,92,0.00,,,0.04,Wunderground v.1.15,2013-08-09 23:04:00,
2013-08-09 19:10:00,71.0,68.6,29.71,WNW,302,2.0,8.0,92,0.00,,,0.04,Wunderground v.1.15,2013-08-09 23:10:00,
2013-08-09 19:16:00,71.2,68.8,29.71,WNW,302,3.0,8.0,92,0.00,,,0.04,Wunderground v.1.15,2013-08-09 23:16:00,
2013-08-09 19:22:00,71.9,69.1,29.72,WNW,301,2.0,4.0,91,0.00,,,0.04,Wunderground v.1.15,2013-08-09 23:22:00,
2013-08-09 19:28:00,71.9,69.1,29.72,West,274,3.0,8.0,91,0.00,,,0.04,Wunderground v.1.15,2013-08-09 23:28:00,
2013-08-09 19:34:00,72.0,69.2,29.72,WNW,282,2.0,8.0,91,0.00,,,0.04,Wunderground v.1.15,2013-08-09 23:34:00,
2013-08-09 19:40:00,71.9,69.1,29.72,WNW,282,1.0,1.0,91,0.00,,,0.04,Wunderground v.1.15,2013-08-09 23:40:00,
2013-08-09 19:46:00,71.7,68.6,29.73,WNW,282,1.0,8.0,90,0.00,,,0.04,Wunderground v.1.15,2013-08-09 23:46:00,
2013-08-09 19:52:00,71.4,68.6,29.73,West,281,1.0,8.0,91,0.00,,,0.04,Wunderground v.1.15,2013-08-09 23:52:00,
2013-08-09 19:58:00,70.7,68.3,29.73,West,277,2.0,8.0,92,0.00,,,0.04,Wunderground v.1.15,2013-08-09 23:58:00,
2013-08-09 20:04:00,70.2,68.1,29.73,West,277,2.0,6.0,93,0.00,,,0.04,Wunderground v.1.15,2013-08-10 00:04:00,
2013-08-09 20:10:00,69.9,67.8,29.73,West,277,0.0,6.0,93,0.00,,,0.04,Wunderground v.1.15,2013-08-10 00:10:00,
2013-08-09 20:16:00,69.7,67.9,29.73,West,277,0.0,6.0,94,0.00,,,0.04,Wunderground v.1.15,2013-08-10 00:16:00,
2013-08-09 20:22:00,69.5,67.7,29.73,West,277,0.0,6.0,94,0.00,,,0.04,Wunderground v.1.15,2013-08-10 00:22:00,
2013-08-09 20:27:00,69.2,67.4,29.73,West,277,0.0,6.0,94,0.00,,,0.04,Wunderground v.1.15,2013-08-10 00:27:00,
2013-08-09 20:34:00,68.8,67.3,29.73,West,277,0.0,6.0,95,0.00,,,0.04,Wunderground v.1.15,2013-08-10 00:34:00,
2013-08-09 20:40:00,68.7,67.2,29.74,West,277,0.0,6.0,95,0.00,,,0.04,Wunderground v.1.15,2013-08-10 00:40:00,
2013-08-09 20:46:00,68.8,67.6,29.74,West,277,0.0,6.0,96,0.00,,,0.04,Wunderground v.1.15,2013-08-10 00:46:00,
2013-08-09 20:51:00,68.7,67.5,29.75,West,277,0.0,6.0,96,0.00,,,0.04,Wunderground v.1.15,2013-08-10 00:51:00,
2013-08-09 20:57:00,68.7,67.5,29.75,West,271,2.0,7.0,96,0.00,,,0.04,Wunderground v.1.15,2013-08-10 00:57:00,
2013-08-09 21:04:00,68.9,67.4,29.75,WNW,292,5.0,5.0,95,0.00,,,0.04,Wunderground v.1.15,2013-08-10 01:04:00,
2013-08-09 21:10:00,69.0,67.2,29.75,WNW,284,5.0,8.0,94,0.00,,,0.04,Wunderground v.1.15,2013-08-10 01:10:00,
2013-08-09 21:16:00,69.0,66.6,29.76,NW,306,7.0,10.0,92,0.00,,,0.04,Wunderground v.1.15,2013-08-10 01:16:00,
2013-08-09 21:22:00,69.1,66.0,29.76,WNW,297,8.0,11.0,90,0.00,,,0.04,Wunderground v.1.15,2013-08-10 01:22:00,
2013-08-09 21:28:00,69.1,65.4,29.76,WNW,297,9.0,11.0,88,0.00,,,0.04,Wunderground v.1.15,2013-08-10 01:28:00,
2013-08-09 21:34:00,68.9,65.2,29.76,NW,312,9.0,9.0,88,0.00,,,0.04,Wunderground v.1.15,2013-08-10 01:34:00,
2013-08-09 21:39:00,68.6,64.9,29.76,NW,306,8.0,8.0,88,0.00,,,0.04,Wunderground v.1.15,2013-08-10 01:39:00,
2013-08-09 21:45:00,68.4,64.7,29.76,NW,311,8.0,10.0,88,0.00,,,0.04,Wunderground v.1.15,2013-08-10 01:45:00,
2013-08-09 21:52:00,68.1,64.4,29.76,NNW,333,7.0,7.0,88,0.00,,,0.04,Wunderground v.1.15,2013-08-10 01:52:00,
2013-08-09 21:58:00,67.9,64.2,29.76,NW,311,6.0,7.0,88,0.00,,,0.04,Wunderground v.1.15,2013-08-10 01:58:00,
2013-08-09 22:03:00,67.7,64.0,29.76,NW,312,5.0,10.0,88,0.00,,,0.04,weatherlink.com 1.10,2013-08-10 02:03:00,
2013-08-09 22:10:00,67.4,63.7,29.76,NW,317,6.0,15.0,88,0.00,,,0.04,Wunderground v.1.15,2013-08-10 02:10:00,
2013-08-09 22:15:00,67.2,63.5,29.76,NW,319,6.0,15.0,88,0.00,,,0.04,Wunderground v.1.15,2013-08-10 02:15:00,
2013-08-09 22:22:00,67.0,63.3,29.76,NW,323,6.0,7.0,88,0.00,,,0.04,Wunderground v.1.15,2013-08-10 02:22:00,
2013-08-09 22:28:00,66.9,63.2,29.76,NW,308,6.0,15.0,88,0.00,,,0.04,Wunderground v.1.15,2013-08-10 02:28:00,
2013-08-09 22:33:00,66.8,63.0,29.76,NW,316,5.0,9.0,88,0.00,,,0.04,weatherlink.com 1.10,2013-08-10 02:33:00,
2013-08-09 22:40:00,66.8,63.1,29.76,NW,321,6.0,6.0,88,0.00,,,0.04,Wunderground v.1.15,2013-08-10 02:40:00,
2013-08-09 22:46:00,66.8,63.5,29.76,NW,308,6.0,15.0,89,0.00,,,0.04,Wunderground v.1.15,2013-08-10 02:46:00,
2013-08-09 22:52:00,66.8,63.5,29.77,NW,308,6.0,15.0,89,0.00,,,0.04,Wunderground v.1.15,2013-08-10 02:52:00,
2013-08-09 22:58:00,66.9,63.6,29.77,NW,306,6.0,15.0,89,0.00,,,0.04,Wunderground v.1.15,2013-08-10 02:58:00,
2013-08-09 23:06:00,66.8,63.5,29.77,NW,311,6.0,9.0,89,0.00,,,0.04,Wunderground v.1.15,2013-08-10 03:06:00,
2013-08-09 23:11:00,66.8,63.5,29.77,WNW,299,6.0,9.0,89,0.00,,,0.04,Wunderground v.1.15,2013-08-10 03:11:00,
2013-08-09 23:18:00,66.7,63.4,29.77,WNW,292,6.0,9.0,89,0.00,,,0.04,Wunderground v.1.15,2013-08-10 03:18:00,
2013-08-09 23:24:00,66.6,63.3,29.78,WNW,294,6.0,9.0,89,0.00,,,0.04,Wunderground v.1.15,2013-08-10 03:24:00,
2013-08-09 23:30:00,66.4,63.4,29.78,WNW,291,6.0,9.0,90,0.00,,,0.04,Wunderground v.1.15,2013-08-10 03:30:00,
2013-08-09 23:36:00,66.4,63.4,29.78,WNW,282,6.0,9.0,90,0.00,,,0.04,Wunderground v.1.15,2013-08-10 03:36:00,
2013-08-09 23:42:00,66.4,63.4,29.78,WNW,289,6.0,9.0,90,0.00,,,0.04,Wunderground v.1.15,2013-08-10 03:42:00,
2013-08-09 23:48:00,66.2,63.2,29.78,West,271,5.0,9.0,90,0.00,,,0.04,Wunderground v.1.15,2013-08-10 03:48:00,
2013-08-09 23:54:00,65.9,63.2,29.78,West,272,3.0,9.0,91,0.00,,,0.04,Wunderground v.1.15,2013-08-10 03:54:00,